Detroit Lakes, MN

10:52 PM CDT on March 27, 2017 (GMT -0500)
Detroit Lakes

Weather History for KDTL - April, 2014

Change the Weather History Date:

Thursday, April 24, 2014

  Actual Average Record
Temperature  
Mean Temperature 36 °F -  
Max Temperature 39 °F 59 °F 83 °F (1990)
Min Temperature 33 °F 32 °F 15 °F (1956)
Degree Days  
Heating Degree Days 29    
Moisture  
Dew Point 37 °F    
Average Humidity 97    
Maximum Humidity 100    
Minimum Humidity 93    
Precipitation  
Precipitation 0.48 in - - ()
Sea Level Pressure  
Sea Level Pressure 29.75 in    
Wind  
Wind Speed 10 mph (SE)    
Max Wind Speed 18 mph    
Max Gust Speed 23 mph    
Visibility 7 miles    
Events Rain , Thunderstorm    
Averages and records for this station are not official NWS values.
T = Trace of Precipitation, MM = Missing Value Source: NWS Daily Summary

Daily Weather History Graph

Daily Weather History Graph

Search for Another Location

Airport or City:

Trip Planner

Search our weather history database for the weather conditions in past years. The results will help you decide how hot, cold, wet, or windy it might be!

Date:

Astronomy

Apr. 24, 2014 Rise Set
Actual Time 6:19 AM CDT 8:24 PM CDT
Civil Twilight 5:47 AM CDT 8:57 PM CDT
Nautical Twilight 5:06 AM CDT 9:38 PM CDT
Astronomical Twilight 4:21 AM CDT 10:23 PM CDT
Moon 3:50 AM CDT (4/24) 3:23 PM CDT (4/24)
Length of Visible Light 15h 10m
Length of Day
14h 04m
Waning Crescent, 24% of the Moon is Illuminated
Apr 24
Waning Crescent
Apr 29
New
May 6
First Quarter
May 14
Full
May 21
Last Quarter

Hourly Weather History & Observations

Time (CDT) Temp. Windchill Dew Point Humidity Pressure Visibility Wind Dir Wind Speed Gust Speed Precip Events Conditions
12:15 AM 37.4 °F 28.5 °F 35.6 °F 93% 29.83 in 10.0 mi SE 15.0 mph - N/A   Mostly Cloudy
12:35 AM 37.4 °F 27.5 °F 37.4 °F 100% 29.83 in 10.0 mi SE 18.4 mph 23.0 mph N/A   Mostly Cloudy
12:54 AM 37.4 °F 28.5 °F 37.4 °F 100% 29.83 in 10.0 mi SE 15.0 mph 23.0 mph N/A   Mostly Cloudy
1:15 AM 37.4 °F 29.3 °F 37.4 °F 100% 29.83 in 10.0 mi SE 12.7 mph - N/A   Light Drizzle
1:35 AM 37.4 °F 28.2 °F 37.4 °F 100% 29.83 in 10.0 mi SE 16.1 mph 21.9 mph N/A   Mostly Cloudy
1:54 AM 37.4 °F 28.5 °F 37.4 °F 100% 29.83 in 10.0 mi SE 15.0 mph 18.4 mph N/A Rain Rain
2:15 AM 37.4 °F 28.5 °F 37.4 °F 100% 29.82 in 7.0 mi SE 15.0 mph 18.4 mph N/A   Light Drizzle
2:35 AM 37.4 °F 28.5 °F 37.4 °F 100% 29.81 in 10.0 mi SE 15.0 mph 18.4 mph N/A   Drizzle
2:54 AM 37.4 °F 28.5 °F 37.4 °F 100% 29.80 in 10.0 mi SE 15.0 mph - N/A   Light Drizzle
3:15 AM 37.4 °F 29.8 °F 37.4 °F 100% 29.81 in 10.0 mi SE 11.5 mph 18.4 mph N/A   Light Drizzle
3:35 AM 37.4 °F 29.3 °F 37.4 °F 100% 29.81 in 7.0 mi SE 12.7 mph - N/A   Drizzle
3:54 AM 37.4 °F 29.8 °F 37.4 °F 100% 29.80 in 10.0 mi SE 11.5 mph - N/A   Light Drizzle
4:15 AM 37.4 °F 29.8 °F 37.4 °F 100% 29.79 in 10.0 mi SE 11.5 mph - N/A   Mostly Cloudy
4:35 AM 37.4 °F 29.8 °F 37.4 °F 100% 29.79 in 10.0 mi SE 11.5 mph 17.3 mph N/A   Mostly Cloudy
4:54 AM 37.4 °F 30.3 °F 37.4 °F 100% 29.78 in 10.0 mi SE 10.4 mph - N/A   Mostly Cloudy
5:15 AM 37.4 °F 30.8 °F 37.4 °F 100% 29.79 in 10.0 mi SE 9.2 mph - N/A   Overcast
5:35 AM 39.2 °F 31.6 °F 37.4 °F 93% 29.78 in 10.0 mi SE 12.7 mph - N/A   Overcast
5:54 AM 39.2 °F 32.0 °F 37.4 °F 93% 29.78 in 10.0 mi SE 11.5 mph - N/A   Overcast
6:15 AM 39.2 °F 33.0 °F 37.4 °F 93% 29.78 in 10.0 mi SE 9.2 mph - N/A   Overcast
6:35 AM 37.4 °F 30.3 °F 37.4 °F 100% 29.77 in 7.0 mi SE 10.4 mph - N/A   Overcast
6:54 AM 37.4 °F 30.3 °F 37.4 °F 100% 29.77 in 7.0 mi SE 10.4 mph - N/A   Overcast
7:15 AM 37.4 °F 31.4 °F 37.4 °F 100% 29.77 in 4.0 mi SE 8.1 mph - N/A   Overcast
7:35 AM 39.2 °F 33.6 °F 37.4 °F 93% 29.78 in 5.0 mi SE 8.1 mph - N/A   Overcast
7:54 AM 39.2 °F 32.5 °F 37.4 °F 93% 29.78 in 4.0 mi SE 10.4 mph - N/A   Overcast
8:15 AM 39.2 °F 33.0 °F 37.4 °F 93% 29.78 in 4.0 mi SE 9.2 mph - N/A   Overcast
8:35 AM 39.2 °F 33.6 °F 37.4 °F 93% 29.78 in 2.5 mi SE 8.1 mph - N/A   Overcast
8:54 AM 37.4 °F 31.4 °F 37.4 °F 100% 29.77 in 1.2 mi SE 8.1 mph - N/A   Drizzle
9:15 AM 37.4 °F 32.8 °F 37.4 °F 100% 29.77 in 1.0 mi SSE 5.8 mph - N/A   Drizzle
9:35 AM 37.4 °F 32.1 °F 37.4 °F 100% 29.77 in 1.0 mi SE 6.9 mph - N/A Rain Rain
9:54 AM 39.2 °F 34.2 °F 37.4 °F 93% 29.78 in 1.2 mi SSE 6.9 mph - 0.03 in Rain Rain
10:15 AM 39.2 °F 33.6 °F 37.4 °F 93% 29.78 in 2.5 mi SE 8.1 mph - 0.03 in Rain Rain
10:35 AM 39.2 °F 34.2 °F 39.2 °F 100% 29.78 in 3.0 mi SE 6.9 mph - 0.06 in Rain Rain
10:54 AM 39.2 °F 35.9 °F 37.4 °F 93% 29.78 in 3.0 mi SSE 4.6 mph - 0.09 in Rain Rain
11:15 AM 37.4 °F 30.3 °F 37.4 °F 100% 29.78 in 2.0 mi South 10.4 mph - 0.06 in   Overcast
11:34 AM 37.4 °F 31.4 °F 35.6 °F 93% 29.78 in 2.0 mi South 8.1 mph - 0.13 in   Overcast
11:55 AM 37.4 °F 32.1 °F 35.6 °F 93% 29.77 in 2.5 mi South 6.9 mph - 0.19 in   Overcast
12:15 PM 37.4 °F 32.1 °F 35.6 °F 93% 29.76 in 7.0 mi SSE 6.9 mph - 0.03 in Rain Light Rain
12:34 PM 37.4 °F 31.4 °F 35.6 °F 93% 29.74 in 5.0 mi SE 8.1 mph - 0.04 in Rain Light Rain
12:55 PM 35.6 °F 29.9 °F 35.6 °F 100% 29.75 in 5.0 mi SE 6.9 mph - 0.06 in Rain Light Rain
1:14 PM 35.6 °F 29.2 °F 33.8 °F 93% 29.73 in 4.0 mi SE 8.1 mph - 0.02 in Rain Rain
1:35 PM 35.6 °F 29.9 °F 33.8 °F 93% 29.73 in 3.0 mi SE 6.9 mph - 0.05 in Rain Light Rain
1:54 PM 35.6 °F 31.7 °F 33.8 °F 93% 29.71 in 2.5 mi ESE 4.6 mph - 0.09 in Rain Light Rain
2:14 PM 35.6 °F 29.9 °F 35.6 °F 100% 29.68 in 5.0 mi East 6.9 mph - 0.02 in Rain Light Rain
2:35 PM 35.6 °F 28.6 °F 35.6 °F 100% 29.69 in 10.0 mi ESE 9.2 mph - 0.02 in Rain Light Rain
2:54 PM 35.6 °F 29.9 °F 35.6 °F 100% 29.70 in 10.0 mi SSE 6.9 mph - 0.02 in   Light Drizzle
3:14 PM 37.4 °F 30.3 °F 35.6 °F 93% 29.72 in 10.0 mi South 10.4 mph - N/A   Overcast
3:35 PM 37.4 °F 32.1 °F 35.6 °F 93% 29.73 in 10.0 mi South 6.9 mph - N/A   Overcast
3:54 PM 37.4 °F 32.8 °F 35.6 °F 93% 29.73 in 10.0 mi South 5.8 mph - N/A   Overcast
4:14 PM 37.4 °F 33.8 °F 35.6 °F 93% 29.71 in 10.0 mi SE 4.6 mph - N/A   Overcast
4:35 PM 37.4 °F 32.8 °F 35.6 °F 93% 29.70 in 10.0 mi SE 5.8 mph - N/A   Overcast
4:54 PM 37.4 °F 32.8 °F 35.6 °F 93% 29.69 in 10.0 mi SE 5.8 mph - N/A   Overcast
5:14 PM 37.4 °F 32.8 °F 35.6 °F 93% 29.69 in 10.0 mi SE 5.8 mph - N/A   Overcast
5:35 PM 37.4 °F 34.9 °F 37.4 °F 100% 29.70 in 10.0 mi ESE 3.5 mph - N/A   Overcast
5:54 PM 37.4 °F 32.8 °F 37.4 °F 100% 29.70 in 10.0 mi South 5.8 mph - N/A   Overcast
6:14 PM 37.4 °F 33.8 °F 37.4 °F 100% 29.71 in 10.0 mi SSE 4.6 mph - N/A Thunderstorm Thunderstorm
6:35 PM 39.2 °F 35.9 °F 37.4 °F 93% 29.71 in 10.0 mi South 4.6 mph - N/A   Overcast
6:54 PM 39.2 °F 37.0 °F 37.4 °F 93% 29.71 in 10.0 mi SSE 3.5 mph - N/A   Overcast
7:14 PM 39.2 °F - 37.4 °F 93% 29.71 in 10.0 mi Calm Calm - N/A   Overcast
7:35 PM 39.2 °F 35.9 °F 37.4 °F 93% 29.70 in 10.0 mi South 4.6 mph - N/A   Overcast
7:54 PM 37.4 °F 33.8 °F 37.4 °F 100% 29.70 in 10.0 mi South 4.6 mph - N/A   Scattered Clouds
8:15 PM 37.4 °F 33.8 °F 37.4 °F 100% 29.71 in 10.0 mi South 4.6 mph - N/A   Mostly Cloudy
8:35 PM 37.4 °F 34.9 °F 37.4 °F 100% 29.69 in 10.0 mi SSE 3.5 mph - N/A   Mostly Cloudy
8:54 PM 37.4 °F - 37.4 °F 100% 29.69 in 10.0 mi Calm Calm - N/A   Scattered Clouds
9:15 PM 37.4 °F - 37.4 °F 100% 29.69 in 10.0 mi Calm Calm - N/A   Scattered Clouds
9:35 PM 37.4 °F - 37.4 °F 100% 29.70 in 7.0 mi Calm Calm - N/A   Scattered Clouds
9:54 PM 37.4 °F 34.9 °F 37.4 °F 100% 29.70 in 7.0 mi NNE 3.5 mph - N/A   Scattered Clouds
10:15 PM 37.4 °F 34.9 °F 37.4 °F 100% 29.69 in 7.0 mi ENE 3.5 mph - N/A   Mostly Cloudy
10:35 PM 35.6 °F - 35.6 °F 100% 29.68 in 5.0 mi Calm Calm - N/A   Scattered Clouds
10:54 PM 35.6 °F - 35.6 °F 100% 29.68 in 4.0 mi Calm Calm - N/A   Clear
11:15 PM 33.8 °F - 33.8 °F 100% 29.68 in 0.8 mi Calm Calm - N/A   Mostly Cloudy
11:35 PM 35.6 °F 31.7 °F 35.6 °F 100% 29.69 in 1.2 mi WSW 4.6 mph - N/A   Overcast
11:54 PM 35.6 °F 31.7 °F 35.6 °F 100% 29.68 in 4.0 mi SW 4.6 mph - N/A   Scattered Clouds